PACCTY-2 Weather Reports


Display with metric or nautical units.
time (UTC)temp
F
wind
direction
speed
MPH
gust
MPH
rain 1hr
in
rain 24hr
in
rain mn
in
humidity
%
barometer
mb
20260903213955 60 0 0.0 0.0 0.00 0.00 0.00 1007.6
20260903212953 60 0 0.0 0.0 0.00 0.00 0.00 1007.9
20260903210949 61 140 0.0 5.0 0.00 0.00 0.00 1007.6
20260903210448 61 186 0.0 10.0 0.00 0.00 0.00 1007.4
20260903205947 62 186 0.0 10.0 0.00 0.00 0.00 1007.4
20260903205446 62 152 1.0 10.0 0.00 0.00 0.00 1007.5
20260903204444 62 140 0.0 11.0 0.00 0.00 0.00 1007.4
20260903203442 60 137 0.0 11.0 0.00 0.00 0.00 1007.5
20260903202941 60 135 0.0 5.0 0.00 0.00 0.00 1007.4
20260903200937 60 161 0.0 7.0 0.00 0.00 0.00 1007.4
20260903200437 60 147 0.0 16.0 0.00 0.00 0.00 1007.4
20260903194432 60 145 6.0 13.0 0.00 0.00 0.00 1007.7
20260903193931 59 149 4.0 13.0 0.00 0.00 0.00 1007.7
20260903193430 59 179 5.0 11.0 0.00 0.00 0.00 1007.7
20260903192929 59 169 6.0 11.0 0.00 0.00 0.00 95 1007.8
20260903192428 59 117 3.0 11.0 0.00 0.00 0.00 95 1007.8
20260903190925 59 123 6.0 9.0 0.00 0.00 0.00 95 1007.7
20260903190425 59 133 5.0 9.0 0.00 0.00 0.00 95 1007.8
20260903185923 59 130 5.0 9.0 0.00 0.00 0.00 95 1007.8
20260903185422 58 133 3.0 9.0 0.00 0.00 0.00 1008.0
20260903182917 57 131 6.0 9.0 0.00 0.00 0.00 95 1007.9
20260903181915 57 135 3.0 10.0 0.00 0.00 0.00 95 1008.0
20260903181414 56 138 4.0 10.0 0.00 0.00 0.00 95 1008.1
20260903180913 56 149 4.0 9.0 0.00 0.00 0.00 95 1008.1
20260903180412 56 142 4.0 14.0 0.00 0.00 0.00 95 1008.2
20260903175911 56 161 2.0 14.0 0.00 0.00 0.00 95 1008.2
20260903175410 56 138 2.0 14.0 0.00 0.00 0.00 95 1008.1
20260903174909 56 133 6.0 11.0 0.00 0.00 0.00 95 1008.0
20260903174408 56 151 7.0 11.0 0.00 0.00 0.00 95 1008.0
20260903173907 56 131 4.0 10.0 0.00 0.00 0.00 95 1008.1
20260903173406 55 137 5.0 12.0 0.00 0.00 0.00 95 1008.0
20260903172905 55 133 6.0 12.0 0.00 0.00 0.00 95 1008.1
20260903171402 55 173 5.0 12.0 0.00 0.00 0.00 95 1008.3
20260903170901 55 169 2.0 12.0 0.00 0.00 0.00 95 1008.1
20260903170400 55 176 4.0 12.0 0.00 0.00 0.00 95 1008.3
20260903165859 55 163 9.0 9.0 0.00 0.00 0.00 95 1008.2
20260903164857 55 141 2.0 8.0 0.00 0.00 0.00 95 1008.2
20260903164356 55 170 5.0 17.0 0.00 0.00 0.00 95 1008.2
20260903163354 56 203 4.0 17.0 0.00 0.00 0.00 95 1008.3
20260903162853 56 218 12.0 16.0 0.00 0.00 0.00 95 1008.2
20260903161851 56 190 7.0 19.0 0.00 0.00 0.00 95 1008.3
20260903160849 56 198 13.0 14.0 0.00 0.00 0.00 95 1008.5
20260903160348 56 229 10.0 24.0 0.00 0.00 0.00 95 1008.3
20260903155346 56 240 11.0 24.0 0.00 0.00 0.00 95 1008.0
20260903154344 56 270 15.0 28.0 0.00 0.00 0.00 95 1007.6
20260903153843 56 243 20.0 28.0 0.00 0.00 0.00 95 1007.5
20260903153342 56 194 20.0 20.0 0.00 0.00 0.00 1007.8
20260903151341 56 190 13.0 17.0 0.00 0.00 0.00 95 1007.8
20260903145334 57 152 6.0 12.0 0.00 0.00 0.00 95 1007.3
20260903144833 57 145 5.0 12.0 0.00 0.00 0.00 95 1007.3
20260903144332 57 137 5.0 12.0 0.00 0.00 0.00 95 1007.4
20260903142830 57 182 4.0 11.0 0.00 0.00 0.00 95 1007.3
20260903142328 57 149 3.0 14.0 0.00 0.00 0.00 95 1007.4
20260903140825 57 182 5.0 12.0 0.00 0.00 0.00 95 1007.3
20260903140324 57 163 3.0 12.0 0.00 0.00 0.00 95 1007.4
20260903134821 57 161 3.0 10.0 0.00 0.00 0.00 95 1007.3
20260903134320 57 144 5.0 14.0 0.00 0.00 0.00 95 1007.2
20260903132817 57 170 9.0 14.0 0.00 0.00 0.00 95 1007.2
20260903132316 58 182 7.0 15.0 0.00 0.00 0.00 95 1007.2
20260903131314 58 180 6.0 15.0 0.00 0.00 0.00 95 1007.1
20260903130312 58 184 11.0 25.0 0.00 0.00 0.00 95 1007.0
20260903125811 58 175 16.0 25.0 0.00 0.00 0.00 95 1007.1
20260903125310 58 190 9.0 14.0 0.00 0.00 0.00 95 1007.1
20260903124308 58 166 4.0 14.0 0.00 0.00 0.00 95 1007.0
20260903123807 58 198 2.0 12.0 0.00 0.00 0.00 94 1007.1
20260903122805 58 207 4.0 14.0 0.00 0.00 0.00 95 1007.1
20260903122305 58 212 2.0 14.0 0.00 0.00 0.00 95 1007.1
20260903120259 58 182 15.0 28.0 0.00 0.00 0.00 95 1007.3
20260903115759 58 166 17.0 28.0 0.00 0.00 0.00 95 1007.3
20260903115258 58 205 17.0 28.0 0.00 0.00 0.00 95 1007.4
20260903114757 58 197 17.0 27.0 0.00 0.00 0.00 95 1007.5
20260903113755 58 168 13.0 30.0 0.00 0.00 0.00 95 1007.6
20260903111751 58 182 17.0 27.0 0.00 0.00 0.00 95 1007.6
20260903110749 57 179 13.0 22.0 0.00 0.00 0.00 94 1007.6
20260903110247 57 198 12.0 19.0 0.00 0.00 0.00 94 1007.6
20260903104243 59 176 14.0 24.0 0.00 0.00 0.00 94 1007.7
20260903103742 59 191 15.0 33.0 0.00 0.00 0.00 94 1007.6
20260903103243 59 201 16.0 33.0 0.00 0.00 0.00 94 1007.7
20260903102741 59 201 20.0 33.0 0.00 0.00 0.00 94 1007.6
20260903102454 59 175 20.0 33.0 0.00 0.00 0.00 94 1007.7
20260903102240 59 175 20.0 33.0 0.00 0.00 0.00 94 1007.7
20260903101238 59 196 16.0 26.0 0.00 0.00 0.00 93 1007.6
20260903100736 60 207 18.0 26.0 0.00 0.00 0.00 93 1007.5
20260903100235 60 191 15.0 26.0 0.00 0.00 0.00 93 1007.5
20260903095735 60 183 17.0 23.0 0.00 0.00 0.00 93 1007.5
20260903094734 60 170 12.0 23.0 0.00 0.00 0.00 93 1007.5
20260903094232 59 203 12.0 23.0 0.00 0.00 0.00 92 1007.6
20260903093732 59 170 7.0 23.0 0.00 0.00 0.00 92 1007.5
20260903093230 59 165 7.0 23.0 0.00 0.00 0.00 92 1007.6
20260903092728 59 168 10.0 23.0 0.00 0.00 0.00 92 1007.5
20260903092227 59 177 8.0 23.0 0.00 0.00 0.00 92 1007.6
20260903091728 59 183 9.0 19.0 0.00 0.00 0.00 92 1007.6
20260903091226 60 156 10.0 16.0 0.00 0.00 0.00 92 1007.6
20260903090224 60 184 4.0 21.0 0.00 0.00 0.00 92 1007.7
20260903085723 60 187 11.0 21.0 0.00 0.00 0.00 92 1007.6
20260903085221 60 189 12.0 13.0 0.00 0.00 0.00 91 1007.7
20260903084219 60 193 8.0 22.0 0.00 0.00 0.00 91 1007.5
20260903083718 60 201 11.0 22.0 0.00 0.00 0.00 91 1007.6
20260903083218 60 187 7.0 22.0 0.00 0.00 0.00 91 1007.6
20260903082716 60 169 11.0 22.0 0.00 0.00 0.00 91 1007.6
20260903081214 60 180 11.0 21.0 0.00 0.00 0.00 92 1007.6
20260903080712 60 180 11.0 21.0 0.00 0.00 0.00 92 1007.6
20260903080211 60 180 11.0 26.0 0.00 0.00 0.00 92 1007.6
20260903075710 60 170 17.0 26.0 0.00 0.00 0.00 92 1007.6
20260903075209 60 193 9.0 26.0 0.00 0.00 0.00 92 1007.6
20260903074708 60 172 7.0 22.0 0.00 0.00 0.00 92 1007.6
20260903073707 60 172 11.0 24.0 0.00 0.00 0.00 92 1007.7
20260903073206 59 184 15.0 24.0 0.00 0.00 0.00 92 1007.7
20260903071702 59 172 13.0 23.0 0.00 0.00 0.00 92 1007.7
20260903071202 60 183 15.0 25.0 0.00 0.00 0.00 92 1007.6
20260903070700 60 184 18.0 25.0 0.00 0.00 0.00 92 1007.6
20260903070200 60 200 16.0 25.0 0.00 0.00 0.00 92 1007.6
20260903065158 60 184 14.0 23.0 0.00 0.00 0.00 92 1007.7
20260903064656 60 176 15.0 23.0 0.00 0.00 0.00 92 1007.6
20260903063748 59 165 7.0 16.0 0.00 0.00 0.00 92 1007.6
20260903063657 59 165 7.0 16.0 0.00 0.00 0.00 92 1007.6
20260903063154 60 169 6.0 16.0 0.00 0.00 0.00 92 1007.7
20260903062152 59 177 8.0 19.0 0.00 0.00 0.00 92 1007.8
20260903061651 59 170 11.0 19.0 0.00 0.00 0.00 92 1007.7
20260903061149 59 187 9.0 16.0 0.00 0.00 0.00 92 1007.8
20260903060147 59 162 6.0 18.0 0.00 0.00 0.00 92 1007.9
20260903055647 59 175 11.0 18.0 0.00 0.00 0.00 92 1007.9
20260903055145 59 182 6.0 11.0 0.00 0.00 0.00 92 1008.0
20260903054644 59 177 5.0 11.0 0.00 0.00 0.00 92 1008.1
20260903054143 58 166 6.0 12.0 0.00 0.00 0.00 92 1008.1
20260903053642 58 163 5.0 12.0 0.00 0.00 0.00 92 1008.1
20260903052139 59 170 5.0 9.0 0.00 0.00 0.00 92 1008.0
20260903051638 58 155 5.0 11.0 0.00 0.00 0.00 92 1008.0
20260903050636 58 158 4.0 11.0 0.00 0.00 0.00 92 1008.0
20260903050135 58 166 4.0 7.0 0.00 0.00 0.00 92 1007.9
20260903045635 58 175 2.0 11.0 0.00 0.00 0.00 92 1007.9
20260903044632 59 175 4.0 11.0 0.00 0.00 0.00 92 1007.9
20260903043630 59 165 4.0 10.0 0.00 0.00 0.00 92 1007.9
20260903043129 59 177 6.0 10.0 0.00 0.00 0.00 92 1007.9
20260903042127 59 158 4.0 17.0 0.00 0.00 0.00 92 1007.9
20260903041626 59 168 4.0 17.0 0.00 0.00 0.00 92 1007.8
20260903040624 59 162 7.0 16.0 0.00 0.00 0.00 91 1007.7
20260903040123 59 183 6.0 12.0 0.00 0.00 0.00 91 1007.7
20260903035121 60 182 4.0 12.0 0.00 0.00 0.00 91 1007.5
20260903033618 60 172 4.0 20.0 0.00 0.00 0.00 91 1007.5
20260903032616 60 175 10.0 23.0 0.00 0.00 0.00 91 1007.3
20260903032115 60 182 12.0 23.0 0.00 0.00 0.00 91 1007.3
20260903031615 61 169 15.0 23.0 0.00 0.00 0.00 91 1007.3
20260903031113 60 187 15.0 21.0 0.00 0.00 0.00 90 1007.3
20260903030111 61 180 13.0 21.0 0.00 0.00 0.00 90 1007.3
20260903025610 61 176 11.0 19.0 0.00 0.00 0.00 90 1007.4
20260903025109 61 189 10.0 19.0 0.00 0.00 0.00 90 1007.4
20260903024609 61 186 12.0 19.0 0.00 0.00 0.00 90 1007.2
20260903024108 61 166 10.0 17.0 0.00 0.00 0.00 90 1007.2
20260903023607 61 177 10.0 20.0 0.00 0.00 0.00 89 1007.2
20260903023107 61 172 12.0 20.0 0.00 0.00 0.00 89 1007.2
20260903022604 61 179 7.0 20.0 0.00 0.00 0.00 89 1007.3
20260903022103 61 187 8.0 20.0 0.00 0.00 0.00 89 1007.3
20260903021602 61 184 7.0 23.0 0.00 0.00 0.00 89 1007.2
20260903021101 61 183 3.0 23.0 0.00 0.00 0.00 88 1007.1
20260903020600 62 180 6.0 23.0 0.00 0.00 0.00 88 1007.1
20260903020059 62 180 10.0 22.0 0.00 0.00 0.00 88 1007.1
20260903015558 62 183 14.0 22.0 0.00 0.00 0.00 88 1007.0
20260903014556 62 187 13.0 22.0 0.00 0.00 0.00 88 1007.0
20260903013053 63 163 14.0 20.0 0.00 0.00 0.00 88 1007.0
20260903012552 63 182 14.0 23.0 0.00 0.00 0.00 88 1007.1
20260903012052 63 183 13.0 23.0 0.00 0.00 0.00 88 1007.1
20260903010047 63 184 12.0 20.0 0.00 0.00 0.00 88 1007.0
20260903005546 63 189 13.0 20.0 0.00 0.00 0.00 88 1006.9
20260903004544 63 182 12.0 24.0 0.00 0.00 0.00 88 1006.9
20260903004043 64 198 15.0 24.0 0.00 0.00 0.00 88 1006.9
20260903003542 64 203 15.0 24.0 0.00 0.00 0.00 88 1006.8
20260903003129 64 179 15.0 22.0 0.00 0.00 0.00 89 1006.8
20260903003042 64 179 15.0 22.0 0.00 0.00 0.00 89 1006.8
20260903002540 64 184 14.0 22.0 0.00 0.00 0.00 89 1006.7
20260903002039 64 200 13.0 20.0 0.00 0.00 0.00 90 1006.7
20260903001037 65 194 9.0 17.0 0.00 0.00 0.00 91 1006.7
20260903000536 65 175 11.0 16.0 0.00 0.00 0.00 91 1006.6
20260903000035 65 196 10.0 16.0 0.00 0.00 0.00 1006.6
20260902235534 65 183 9.0 16.0 0.00 0.00 0.00 92 1006.5
20260902235033 65 173 10.0 15.0 0.00 0.00 0.00 92 1006.5
20260902233029 65 166 9.0 16.0 0.00 0.00 0.00 93 1006.3
20260902232528 65 175 10.0 16.0 0.00 0.00 0.00 93 1006.3
20260902232029 64 170 10.0 16.0 0.00 0.00 0.00 93 1006.2
20260902231025 64 203 11.0 18.0 0.00 0.00 0.00 93 1006.2
20260902230524 64 204 13.0 18.0 0.00 0.00 0.00 93 1006.2
20260902225522 64 189 11.0 17.0 0.00 0.00 0.00 93 1006.0
20260902224520 64 189 12.0 17.0 0.00 0.00 0.00 1005.9
20260902223518 64 172 12.0 17.0 0.00 0.00 0.00 94 1005.8
20260902223017 63 172 10.0 17.0 0.00 0.00 0.00 94 1005.9
20260902222516 62 183 10.0 21.0 0.00 0.00 0.00 94 1005.8
20260902221514 62 193 13.0 21.0 0.00 0.00 0.00 94 1005.8
20260902221013 62 190 14.0 20.0 0.00 0.00 0.00 94 1005.8
20260902220512 61 193 14.0 20.0 0.00 0.00 0.00 94 1005.7
20260902220011 61 177 12.0 24.0 0.00 0.00 0.00 95 1005.7
20260902215510 61 180 14.0 24.0 0.00 0.00 0.00 95 1005.6